観測年月日,2015年10月15日(木),,,
観測者,大熊　祐里英,,,
観測地点,15,,,
温度計番号,A035,,,
,,,,
時刻,気温,風向,風速,備考
 15:00:00,   22.338180662465057     
 15:01:00,   22.338180662465057     
 15:02:00,   22.234353489469161     
 15:03:00,   22.130526316473272     
 15:04:00,   22.130526316473272     
 15:05:00,   22.130526316473272     
 15:06:00,   22.130526316473272     
 15:07:00,   22.130526316473272     
 15:08:00,   22.130526316473272     
 15:09:00,   22.026699143477380     
 15:10:00,   22.026699143477380     
 15:11:00,   22.026699143477380     
 15:12:00,   21.922871970481491     
 15:13:00,   21.922871970481491     
 15:14:00,   21.922871970481491     
 15:15:00,   21.922871970481491     
 15:16:00,   21.922871970481491     
 15:17:00,   21.819044797485599     
 15:18:00,   21.819044797485599     
 15:19:00,   21.922871970481491     
 15:20:00,   21.922871970481491     
 15:21:00,   21.922871970481491     
 15:22:00,   21.922871970481491     
 15:23:00,   22.026699143477380     
 15:24:00,   22.026699143477380     
 15:25:00,   22.026699143477380     
 15:26:00,   22.026699143477380     
 15:27:00,   21.922871970481491     
 15:28:00,   22.026699143477380     
 15:29:00,   22.026699143477380     
 15:30:00,   22.026699143477380     
 15:31:00,   22.026699143477380     
 15:32:00,   21.922871970481491     
 15:33:00,   21.611390451493815     
 15:34:00,   21.507563278497923     
 15:35:00,   21.507563278497923     
 15:36:00,   21.507563278497923     
 15:37:00,   21.403736105502034     
 15:38:00,   21.403736105502034     
 15:39:00,   21.403736105502034     
 15:40:00,   21.299908932506142     
 15:41:00,   21.299908932506142     
 15:42:00,   21.299908932506142     
 15:43:00,   21.299908932506142     
 15:44:00,   21.299908932506142     
 15:45:00,   21.299908932506142     
 15:46:00,   21.299908932506142     
 15:47:00,   21.299908932506142     
 15:48:00,   21.299908932506142     
 15:49:00,   21.299908932506142     
 15:50:00,   21.299908932506142     
 15:51:00,   21.299908932506142     
 15:52:00,   21.299908932506142     
 15:53:00,   21.299908932506142     
 15:54:00,   21.299908932506142     
 15:55:00,   21.299908932506142     
 15:56:00,   21.299908932506142     
 15:57:00,   21.299908932506142     
 15:58:00,   21.299908932506142     
 15:59:00,   21.299908932506142     
 16:00:00,   21.299908932506142     
 16:01:00,   21.299908932506142     
 16:02:00,   21.299908932506142     
 16:03:00,   21.299908932506142     
 16:04:00,   21.403736105502034     
 16:05:00,   21.403736105502034     
 16:06:00,   21.299908932506142     
 16:07:00,   21.403736105502034     
 16:08:00,   21.403736105502034     
 16:09:00,   21.299908932506142     
 16:10:00,   21.403736105502034     
 16:11:00,   21.299908932506142     
 16:12:00,   21.299908932506142     
 16:13:00,   21.299908932506142     
 16:14:00,   21.299908932506142     
 16:15:00,   21.299908932506142     
 16:16:00,   21.092254586514358     
 16:17:00,   21.092254586514358     
 16:18:00,   21.196081759510246     
 16:19:00,   21.092254586514358     
 16:20:00,   21.092254586514358     
 16:21:00,   21.092254586514358     
 16:22:00,   21.092254586514358     
 16:23:00,   21.092254586514358     
 16:24:00,   21.196081759510246     
 16:25:00,   21.196081759510246     
 16:26:00,   21.196081759510246     
 16:27:00,   21.196081759510246     
 16:28:00,   21.196081759510246     
 16:29:00,   21.196081759510246     
 16:30:00,   21.092254586514358     
 16:31:00,   21.092254586514358     
 16:32:00,   21.196081759510246     
 16:33:00,   21.092254586514358     
 16:34:00,   21.092254586514358     
 16:35:00,   21.092254586514358     
 16:36:00,   21.092254586514358     
 16:37:00,   21.092254586514358     
 16:38:00,   20.988427413518465     
 16:39:00,   20.988427413518465     
 16:40:00,   20.988427413518465     
 16:41:00,   20.884600240522577     
 16:42:00,   20.884600240522577     
 16:43:00,   20.884600240522577     
 16:44:00,   20.884600240522577     
 16:45:00,   20.780773067526685     
 16:46:00,   20.780773067526685     
 16:47:00,   20.676945894530789     
 16:48:00,   20.676945894530789     
 16:49:00,   20.676945894530789     
 16:50:00,   20.573118721534900     
 16:51:00,   20.573118721534900     
 16:52:00,   20.469291548539008     
 16:53:00,   20.469291548539008     
 16:54:00,   20.469291548539008     
 16:55:00,   20.469291548539008     
 16:56:00,   20.469291548539008     
 16:57:00,   20.365464375543120     
 16:58:00,   20.365464375543120     
 16:59:00,   20.261637202547227     
 17:00:00,   20.261637202547227     
